Location: Ajisawe
(8.4333°N, 4.3833°E)
Time: 22:29:46
(UTC+00:00)

Vanguard 2 Rocket - Pass Details

Date: 27 April 2021
Orbit: 554 x 3326 km, 32.9° (Epoch: 16 May)

Event Time Altitude Azimuth Distance (km) Brightness Sun altitude
Rises 21:18:24 0° 276° (W) 6,375 11.8 -48.3°
Reaches altitude 10° 21:25:32 10° 258° (WSW) 4,740 10.8 -49.7°
Enters shadow 21:31:26 16° 230° (SW) 3,689 10.0 -50.9°
Maximum altitude 21:32:07 16° 226° (SW) 3,610 - -51.1°
Drops below altitude 10° 21:37:12 10° 192° (SSW) 3,478 - -52.1°
Sets 21:41:10 0° 169° (S) 3,982 - -52.9°
